Tracking 25648 objects as of 17-May-2022
HD Live streaming from Space Station
objects crossing your sky now

SL-12 R/B(AUX MOTOR)

Track SL-12 R/B(AUX MOTOR) now!
10-day predictions


NORAD ID: 33385
Int'l Code: 2008-046H
Perigee: 506.7 km
Apogee: 19,125.5 km
Inclination: 64.7 °
Period: 341.6 minutes
Semi major axis: 16187 km
RCS: 0.543 m2 (medium)
Launch date: September 25, 2008
Source: Commonwealth of Independent States (former USSR) (CIS)
Launch site: TYURATAM MISSILE AND SPACE COMPLEX (TTMTR)

Note: This is a ROCKET BODY
aabbcc
Your satellite tracking list
Your tracking list is empty




NASA's NSSDC Master Catalog

Two Line Element Set (TLE):
1 33385U 08046H   22136.34744686  .00000569  00000-0  12746-2 0  9998
2 33385  64.7179 210.5710 5751136 337.2353   5.2172  4.21550120122516
Source of the keplerian elements: AFSPC